Location: Holton (historical)
(33.9472°N, 118.4440°W)
Time: 12:18:51
(UTC+00:00)

Daily predictions for brighter satellites

Satellite Brightness Start Highest point End
(mag) Time Altitude Azimuth Time Altitude Azimuth Time Altitude Azimuth
Cosmos 2369 4.4 12:08:44 49° ENE 12:08:53 50° ENE 12:14:19 10° SE
Cosmos 1898 Rocket 4.4 12:14:12 44° NE 12:14:40 45° ENE 12:19:42 10° SE
Tiangong 0.9 12:29:07 17° E 12:29:07 17° E 12:29:59 10° ESE
Cosmos 372 Rocket 4.1 12:29:01 69° SE 12:29:01 69° SE 12:33:32 10° SSE
OAO 3 Rocket 4.1 12:30:37 39° SSE 12:30:37 39° SSE 12:34:58 10° E
Cosmos 967 Rocket 4.5 12:33:11 64° SW 12:33:11 64° SW 12:39:18 10° SSE
Cosmos 1937 Rocket 4.3 12:31:53 32° NNE 12:33:49 48° ENE 12:38:46 10° SE
Cosmos 2333 Rocket 4.3 12:30:19 10° N 12:34:50 23° ENE 12:39:17 10° ESE
SL-16 R/B 4.5 12:29:16 10° SSW 12:30:10 14° SSW 12:30:10 14° SSW
USA 59 Rocket 0.5 12:36:57 60° NE 12:37:08 60° ENE 12:42:37 10° SE
NOSS 2-1 (D) 4.1 12:37:28 53° NE 12:37:46 54° ENE 12:43:05 10° SE
Cosmos 1892 Rocket 3.9 12:35:15 10° S 12:39:32 62° E 12:43:52 10° NNE
Aureole 1 Rocket 4.2 12:42:03 40° NW 12:44:56 69° WSW 12:52:12 10° S
Cosmos 2180 Rocket 4.5 12:46:12 51° NW 12:47:26 60° W 12:53:40 10° S
COSMOS 2455 2.7 12:47:28 48° NW 12:49:13 81° WSW 12:55:13 10° SSE
Cosmos 2026 Rocket 4.1 12:44:38 10° S 12:50:38 73° E 12:56:42 10° N
NOSS 2-1 (E) 4.1 12:50:25 45° N 12:51:25 58° ENE 12:56:46 10° SE
Cosmos 2322 Rocket 4.2 12:48:25 10° N 12:52:59 24° ENE 12:57:29 10° ESE
CZ-3 Stage 3 4.3 12:46:57 34° W 12:53:00 69° S 13:35:17 10° ESE
ATLAS 2AS CENTAUR R/B 4.0 12:48:11 10° S 12:54:46 41° ESE 13:01:11 10° NE
Centaur AC-119 4.1 12:53:06 26° SSW 12:54:53 33° S 12:59:23 10° ESE
Delta 2 Rocket 4.0 13:05:57 29° S 13:05:57 29° S 13:08:05 10° SE
NOSS 2-1 (C) 3.6 13:08:08 46° NW 13:09:23 78° WSW 13:15:01 10° SSE
Meteor 2-3 Rocket 3.8 13:07:12 10° SSW 13:12:46 51° W 13:18:18 10° N
COSMOS 2406 4.5 13:16:23 22° NNW 13:16:23 22° NNW 13:19:10 10° N
Cosmos 2237 4.2 13:12:44 27° NW 13:15:47 62° WSW 13:21:22 10° S
Cosmos 158 Rocket 4.2 13:12:10 10° S 13:17:28 74° ESE 13:22:44 10° NNE
Cosmos 1092 Rocket 3.9 13:13:07 10° SSW 13:19:23 74° W 13:25:38 10° N
SKYMED 2 3.4 13:15:55 10° SSE 13:20:16 85° W 13:24:23 11° NNW
NOAA 12 4.0 13:15:27 10° N 13:20:39 60° WNW 13:25:46 10° SSW
SL-16 R/B 2.3 13:16:46 12° NNW 13:22:04 79° ENE 13:27:43 10° SSE
Meteor 1-26 Rocket 4.5 13:18:02 10° N 13:23:39 72° E 13:29:25 10° SSE
Cosmos 2058 Rocket 3.2 13:20:02 10° N 13:24:27 73° E 13:28:48 10° SSE
CZ-3 R/B 3.8 13:14:56 20° W 13:25:10 33° SW 13:32:01 10° SSE
Cosmos 1743 3.9 13:29:50 10° SSE 13:32:49 36° E 13:35:50 10° NNE
Meteor 2-20 4.4 13:31:02 10° NNW 13:37:04 64° W 13:43:02 10° S
Cosmos 1980 Rocket 4.1 13:41:11 10° WSW 13:41:11 10° WSW 13:41:19 10° WSW
BREEZE-M DEB (TANK) 2.8 13:41:51 21° WSW 13:43:23 44° NW 13:45:39 10° NE
Cosmos 2278 3.6 13:41:08 10° NNW 13:46:46 73° WSW 13:52:21 10° SSE
OAO 2 Rocket 3.3 13:44:17 15° W 13:48:37 88° N 13:53:45 10° E
Cosmos 1758 Rocket 3.5 13:44:47 10° S 13:49:12 82° W 13:53:37 10° N
Cosmos 1484 Rocket 2.3 13:45:57 10° N 13:49:18 64° WNW 13:52:36 10° SSW
Helios 1A Rocket 2.6 13:53:08 10° S 13:56:21 47° W 13:59:36 10° NNW
ISS -1.8 13:53:23 10° SSW 13:56:26 33° SE 13:59:30 10° ENE
[s.n.66875] 1.9 13:54:23 10° SW 13:56:52 57° SSE 13:59:23 10° ENE
[s.n.66873] 1.9 13:55:04 10° SW 13:57:34 58° SSE 14:00:05 10° ENE
[s.n.66876] 1.8 13:55:33 10° SW 13:58:02 59° SSE 14:00:34 10° ENE
Meteor 2-20 Rocket 4.3 13:52:50 10° NNW 13:58:27 60° W 14:04:02 10° S
[s.n.66874] 1.8 13:56:21 10° SW 13:58:51 60° SSE 14:01:22 10° ENE
[s.n.66872] 1.8 13:57:09 10° SW 13:59:39 62° SSE 14:02:11 10° ENE
[s.n.66871] 1.7 13:57:41 10° SW 14:00:12 63° SSE 14:02:44 10° ENE
[s.n.66870] 1.7 13:58:31 10° SW 14:01:02 64° SSE 14:03:34 10° ENE
[s.n.66869] 1.7 13:59:18 10° SW 14:01:50 66° SSE 14:04:22 10° ENE
[s.n.66868] 1.6 13:59:56 10° SW 14:02:27 67° SSE 14:04:59 10° ENE
[s.n.66867] 1.6 14:00:43 10° SW 14:03:15 69° SSE 14:05:48 10° ENE
Tiangong -0.2 14:01:27 12° W 14:03:34 20° SW 14:06:00 10° SSE
[s.n.66866] 1.5 14:01:27 10° SW 14:04:00 70° SSE 14:06:33 10° ENE
[s.n.66865] 1.5 14:02:01 10° SW 14:04:33 72° SSE 14:07:07 10° ENE
[s.n.66860] 1.5 14:02:41 10° SW 14:05:13 73° SSE 14:07:47 10° ENE
[s.n.66864] 1.5 14:03:19 10° SW 14:05:52 74° SSE 14:08:25 10° ENE
Cosmos 405 Rocket 3.1 14:03:14 10° SW 14:06:05 28° WNW 14:08:58 10° NNW
[s.n.66863] 1.4 14:03:55 10° SW 14:06:27 76° SSE 14:09:02 10° ENE
BREEZE M DEB (TANK) 3.4 14:06:06 12° NW 14:07:13 15° NNW 14:09:10 10° NNE
[s.n.66861] 1.4 14:04:44 10° SW 14:07:17 77° SSE 14:09:51 10° ENE
CZ-2D R/B 4.0 14:04:16 10° NNE 14:07:20 46° E 14:10:22 10° S
[s.n.66862] 1.4 14:05:23 10° SW 14:07:57 79° SSE 14:10:31 10° ENE
OAO 3 Copernicus 4.3 14:03:26 11° W 14:08:16 79° N 14:13:17 10° E
[s.n.66859] 1.4 14:06:06 10° WSW 14:08:39 80° SSE 14:11:13 10° ENE
[s.n.66858] 1.4 14:06:46 10° WSW 14:09:20 82° SSE 14:11:54 10° ENE
Cosmos 2344 4.1 14:00:40 10° SSW 14:09:22 67° ESE 14:16:32 10° NE
COSMO-SKYMED 1 3.3 14:06:09 10° SSW 14:09:47 31° W 14:13:28 10° NW
[s.n.66857] 1.3 14:07:22 10° WSW 14:09:55 83° SSE 14:12:29 10° ENE
[s.n.66856] 1.3 14:07:55 10° WSW 14:10:28 84° SSE 14:13:03 10° ENE
[s.n.66855] 1.3 14:08:36 10° WSW 14:11:10 86° SE 14:13:45 10° ENE
Cosmos 1626 Rocket 4.1 14:07:30 10° SW 14:11:32 35° W 14:15:36 10° NNW
[s.n.66854] 1.3 14:09:12 10° WSW 14:11:45 87° SE 14:14:20 10° ENE
[s.n.66853] 1.3 14:09:55 10° WSW 14:12:29 89° SSE 14:15:04 10° ENE
Cosmos 1707 4.3 14:09:46 10° NNE 14:12:33 29° E 14:15:19 10° SE
Cosmos 2360 Rocket 2.2 14:07:13 10° NNW 14:12:50 78° WSW 14:18:24 10° SSE
[s.n.66852] 1.3 14:10:41 10° WSW 14:13:15 90° NNW 14:15:50 10° ENE
OAO 3 Rocket 3.1 14:08:51 10° W 14:13:31 89° N 14:18:16 10° E
Cosmos-2242 3.8 14:10:04 10° NNW 14:13:40 28° W 14:17:15 10° SSW
[s.n.66851] 1.3 14:11:13 10° WSW 14:13:46 88° NW 14:16:21 10° ENE
[s.n.66850] 1.3 14:11:46 10° WSW 14:14:20 87° NNW 14:16:55 10° ENE
[s.n.66849] 1.3 14:12:29 10° WSW 14:15:03 86° NNW 14:17:38 10° ENE
Okean 1 4.0 14:12:27 10° NNW 14:15:27 26° W 14:18:27 10° SSW
[s.n.66848] 1.2 14:13:01 10° WSW 14:15:35 85° NNW 14:18:10 10° ENE
Cosmos 2333 Rocket 2.7 14:13:51 10° NW 14:19:15 43° WSW 14:24:38 10° S
SJ-12 4.2 14:15:38 10° NNE 14:19:25 66° E 14:23:12 10° S
SL-4 R/B 3.6 14:18:09 10° NNW 14:20:27 18° NNE 14:22:44 10° E
BREEZE-M DEB (TANK) 3.9 14:15:57 10° WNW 14:20:32 31° SW 14:23:17 10° SSE
MOS 1 Rocket 4.0 14:20:44 10° NNE 14:26:04 71° E 14:31:12 10° S
